GFSSW_850_spd_000.txt.gz
Wind_Speed
8 9 9 9 9 9 10 10 10 9 9 10 10 11 12 13 14 16 17 10 8 8 8 5 6 5 5 3 4 3 3 3 5 5 5 2 1 4 5 9 8 10 20 22 22
9 10 10 11 11 11 11 12 12 12 12 12 12 13 14 16 18 21 11 11 9 9 9 8 8 7 4 4 4 4 4 7 6 5 5 5 5 15 5 11 12 21 26 27 27
11 11 12 12 13 14 14 14 14 14 14 14 14 15 16 17 19 2 3 8 5 10 11 10 9 8 5 5 7 6 6 5 8 17 13 7 7 11 4 8 27 22 24 20 23
14 14 14 15 16 15 16 16 16 16 16 16 15 16 17 15 6 1 8 14 10 12 14 12 9 5 4 5 8 3 13 13 6 8 6 6 14 8 12 35 35 34 32 34 32
15 16 16 17 17 18 18 18 18 17 17 17 17 17 18 9 19 22 20 15 12 13 16 15 13 6 4 5 4 5 6 15 24 21 21 22 27 13 21 46 42 40 35 34 31
15 15 16 17 18 19 19 20 20 20 19 18 17 17 19 10 15 12 11 12 13 14 16 18 8 11 7 7 7 3 8 12 14 17 19 11 28 4 31 36 37 35 35 31 28
14 14 15 16 18 19 19 20 22 22 21 20 19 19 22 31 23 25 26 26 20 18 18 17 19 9 2 4 5 6 7 9 7 12 7 11 10 11 36 31 33 38 33 30 30
11 12 14 15 16 18 19 21 22 22 21 20 19 18 20 25 26 27 27 28 23 18 17 15 13 14 13 7 3 3 1 5 2 5 4 11 10 22 26 21 27 27 26 33 38
10 11 13 14 16 18 19 20 21 21 20 18 17 14 12 19 20 23 26 24 18 18 13 11 7 7 3 2 4 3 6 7 10 12 6 8 10 14 23 16 20 31 46 47 51
11 13 14 15 16 19 18 19 18 18 15 11 14 5 18 14 11 12 13 16 12 9 7 8 6 3 2 4 7 9 6 6 7 7 6 6 17 14 36 35 33 38 47 51 53
13 13 15 16 17 20 19 17 8 5 5 10 5 8 6 13 11 11 10 11 9 7 6 4 4 9 20 13 5 3 6 12 8 8 4 20 23 18 24 27 37 38 36 46 47
14 16 15 17 19 21 17 10 10 9 11 16 23 29 32 15 6 13 9 9 7 6 6 4 7 17 2 2 6 6 11 18 14 15 5 14 21 18 19 24 33 38 41 34 43
16 16 16 17 21 19 17 14 17 13 5 12 19 16 16 17 12 13 12 7 5 6 9 12 10 5 6 3 8 4 7 17 14 6 5 10 13 7 9 13 27 37 43 35 39
16 19 18 17 17 11 15 16 17 15 4 7 3 2 3 4 3 6 16 6 3 9 5 6 4 6 3 7 9 15 11 13 10 6 7 5 15 6 8 10 9 25 25 27 23
18 19 18 16 13 14 13 13 13 8 6 4 2 1 1 5 3 1 10 6 5 5 3 7 2 2 4 10 7 10 5 7 3 4 5 1 3 1 4 6 11 9 10 17 21
20 17 17 17 15 10 9 8 7 3 8 3 1 1 1 2 2 4 4 5 1 2 3 7 2 6 8 7 9 2 2 4 4 2 5 9 8 20 4 4 2 9 31 21 19
13 14 14 15 8 5 4 4 2 7 4 2 1 1 2 4 3 4 5 5 6 2 4 2 5 4 5 3 1 3 4 3 3 1 9 3 3 16 10 16 8 10 17 7 18
13 13 14 14 16 9 6 2 9 4 7 1 2 3 4 4 4 3 4 4 6 3 2 4 15 6 5 9 9 8 9 6 7 5 12 3 7 18 7 10 27 17 14 7 20
21 20 20 17 13 16 8 7 8 6 5 3 1 2 3 2 3 1 5 5 7 10 7 4 10 3 6 4 4 4 6 3 3 5 3 12 14 15 18 7 4 3 8 18 25
19 17 18 17 14 20 6 21 6 5 1 1 4 6 4 3 1 2 5 2 5 8 1 4 11 6 2 3 5 7 2 2 1 4 8 7 14 12 22 26 7 9 17 36 38
15 6 7 9 19 13 9 11 11 21 19 6 3 7 7 4 4 5 2 5 5 2 5 2 3 6 1 6 11 2 4 4 2 5 12 18 13 10 22 21 9 11 28 28 29
7 3 5 16 10 7 14 7 11 25 25 7 8 18 18 16 19 18 17 10 5 5 4 9 5 11 19 6 6 5 12 7 10 10 10 11 11 12 13 16 25 26 28 31 30
6 5 5 19 7 10 11 7 15 19 20 4 6 8 13 15 11 13 13 6 13 5 3 4 3 4 6 6 4 2 2 4 10 5 12 11 7 8 15 17 27 26 30 31 32
4 1 5 15 20 7 13 15 16 19 14 14 14 15 15 20 17 13 4 4 3 1 7 3 5 12 15 15 8 11 11 11 13 9 13 13 20 12 14 14 19 19 25 31 33
5 3 3 3 9 12 12 9 15 11 2 11 4 9 9 10 10 10 8 4 2 3 3 2 14 16 18 12 6 7 12 17 16 16 11 19 19 5 10 13 18 14 21 22 29
4 2 2 4 9 5 4 13 20 24 15 20 18 18 15 15 12 16 6 4 5 3 2 3 3 5 11 18 13 19 17 18 21 20 15 18 9 2 4 9 12 12 14 22 25
3 5 2 5 1 2 2 4 4 5 8 7 9 6 9 5 4 2 5 8 6 2 2 1 3 5 18 12 8 12 21 20 17 17 2 8 3 2 4 8 15 17 11 19 18

GFSSW_850_spd_003.txt.gz
Wind_Speed
8 9 10 10 10 11 11 11 10 10 10 10 12 13 13 14 15 16 18 10 7 10 8 7 6 5 5 4 5 5 3 2 5 5 5 3 2 2 3 10 9 12 21 24 26
10 10 11 12 12 12 12 12 12 12 12 12 12 13 15 16 18 20 5 3 5 6 9 8 8 7 4 5 4 4 4 8 6 5 5 5 7 11 4 10 17 18 24 25 25
10 11 13 13 14 14 14 14 14 14 14 15 15 16 16 17 18 1 2 6 4 6 10 9 7 7 4 4 6 5 6 5 7 16 12 7 7 7 3 7 27 25 26 24 25
13 14 14 16 16 16 17 17 16 16 16 16 15 16 17 14 6 1 7 16 13 8 11 10 7 4 3 4 6 3 13 11 5 8 5 6 9 5 14 34 37 38 36 36 35
13 14 15 16 17 17 18 18 18 18 17 17 16 16 17 7 19 22 17 13 9 9 12 13 12 8 4 5 3 4 6 13 19 16 20 21 26 14 26 43 41 38 36 34 33
13 13 14 15 17 18 19 20 20 20 19 19 17 17 18 10 15 10 9 11 11 11 14 15 10 11 4 5 7 3 7 15 11 15 16 10 29 5 24 31 32 32 36 35 35
11 12 13 14 16 17 18 20 22 21 20 20 19 18 22 31 22 23 26 24 18 16 16 16 17 8 3 3 7 4 6 8 7 10 8 7 9 11 33 25 29 37 29 28 33
9 10 12 13 15 16 18 20 21 21 20 19 18 17 19 23 23 24 25 28 23 16 15 13 12 11 10 6 2 2 1 4 4 6 4 11 14 17 35 21 23 25 38 46 46
8 9 11 13 14 16 17 19 20 20 19 17 15 12 12 17 16 17 21 20 15 14 12 6 9 5 4 3 4 2 5 7 9 12 5 8 9 11 19 22 30 39 48 52 51
9 10 11 13 14 15 17 17 17 15 12 8 9 4 16 14 10 10 10 10 8 8 7 6 4 2 3 3 7 8 5 5 6 7 3 7 15 16 32 37 38 40 41 46 43
9 12 13 13 14 17 20 17 8 4 4 7 7 9 12 9 16 10 7 10 8 7 5 3 4 8 15 15 2 4 5 6 8 9 4 23 19 15 23 27 37 39 39 29 36
12 12 14 15 15 16 16 9 9 9 12 19 22 27 31 24 8 13 9 9 8 6 7 4 8 18 3 5 8 6 8 15 7 10 3 12 21 22 18 25 32 34 32 28 32
14 13 12 14 16 16 11 12 15 15 5 12 19 16 13 17 11 15 13 7 5 7 8 8 6 3 5 3 7 3 6 10 9 7 6 8 7 4 6 12 23 25 21 24 23
14 17 15 14 12 8 10 13 15 16 3 7 4 2 3 5 2 5 15 5 2 7 8 6 3 6 4 6 7 7 10 10 5 5 3 6 11 5 7 9 5 13 7 11 14
18 18 16 13 9 8 9 11 11 6 6 4 2 1 2 3 2 2 9 5 3 4 5 7 7 4 4 8 7 10 2 2 2 2 4 2 2 5 3 7 6 6 7 13 21
17 16 16 13 9 7 7 6 6 3 8 4 1 0 1 1 1 3 3 3 1 1 2 6 2 5 7 4 5 5 4 6 4 2 4 8 7 2 4 4 3 7 29 29 27
13 12 10 7 4 0 1 1 2 5 3 3 2 1 1 1 1 2 2 3 5 1 4 1 5 3 3 2 1 3 4 3 3 1 7 1 1 6 7 13 6 9 17 24 28
11 11 11 9 8 7 7 2 10 5 7 0 1 1 4 5 2 3 2 4 6 2 1 3 14 8 5 7 8 7 8 6 7 5 8 3 7 13 7 7 16 25 22 29 30
16 19 20 17 12 12 8 7 6 7 5 0 4 3 3 2 2 2 4 4 4 8 8 5 7 1 5 4 5 4 6 3 2 2 1 9 11 15 14 8 20 24 30 31 33
17 17 20 13 13 18 5 14 7 7 3 3 4 5 5 4 4 2 3 1 4 8 4 3 7 4 3 1 3 5 0 1 2 3 11 8 14 13 15 11 13 17 22 22 28
12 5 6 13 18 13 9 7 8 18 11 5 7 10 13 10 5 4 6 6 5 3 7 3 7 7 3 5 6 0 3 3 3 4 11 13 8 3 7 8 9 10 13 17 24
8 2 7 15 9 6 11 4 6 11 13 4 2 5 10 13 14 11 10 8 3 4 4 5 4 5 10 8 5 5 7 4 4 6 5 11 8 10 9 10 7 4 9 17 22
10 5 11 21 6 9 5 5 8 8 9 4 6 6 2 6 8 9 5 4 7 6 4 2 2 3 5 4 3 3 2 5 2 2 13 11 7 9 9 7 9 7 11 14 17
6 2 4 16 14 2 5 11 11 10 9 13 8 7 6 9 8 10 7 3 2 1 1 3 4 12 14 11 5 9 11 4 5 9 14 14 7 4 7 10 10 10 13 15 21
5 3 3 4 5 6 3 7 5 5 6 1 3 5 3 6 3 5 3 4 4 6 3 3 8 8 13 16 7 3 8 13 13 16 10 17 17 20 2 3 7 14 13 15 20
5 4 4 3 5 2 6 7 15 16 5 15 11 12 6 7 7 11 4 4 8 1 2 2 7 2 6 6 7 13 16 19 20 19 16 19 23 4 5 6 9 13 7 13 23
5 5 2 2 3 4 4 3 1 2 3 8 4 4 3 2 3 3 5 8 4 3 3 3 2 3 16 2 6 9 15 14 15 18 9 15 4 2 3 6 9 10 4 12 23

GFSSW_850_spd_006.txt.gz
Wind_Speed
5 6 6 7 7 8 8 8 9 8 8 9 9 10 11 12 14 15 17 10 6 8 8 7 6 6 5 4 4 4 4 5 4 4 2 3 4 3 6 11 9 12 18 17 22
7 7 8 9 9 9 10 9 10 10 10 10 11 11 12 14 17 18 0 4 2 4 9 9 8 8 3 3 3 5 4 5 4 5 7 8 6 9 7 17 22 18 20 19 20
9 10 10 11 12 12 12 12 12 12 12 12 12 13 13 14 16 3 2 3 3 4 9 10 8 8 5 4 7 5 7 7 9 15 10 10 12 7 11 17 17 20 24 19 24
11 12 13 14 14 15 15 15 15 15 15 14 14 14 14 11 6 3 4 14 14 8 11 11 9 5 5 6 7 6 14 13 9 9 5 9 9 13 18 33 31 29 26 28 27
11 12 13 13 14 15 15 16 16 16 16 16 15 16 15 7 15 17 19 16 10 9 12 13 12 7 7 5 4 9 12 13 16 13 15 17 27 20 27 29 32 28 27 28 28
9 10 11 12 13 14 15 16 17 16 16 16 16 16 16 9 13 10 10 11 11 12 14 15 9 13 5 7 9 3 8 14 12 18 16 11 29 11 16 15 23 23 26 25 23
7 8 9 10 11 12 14 16 17 17 17 17 16 15 19 24 20 21 21 17 15 14 16 17 15 8 4 5 4 4 11 15 17 13 8 9 14 16 25 13 20 27 24 27 34
5 7 9 10 11 12 13 15 16 17 16 16 15 14 13 17 16 19 20 21 14 14 15 14 13 12 6 1 2 5 4 10 7 5 4 9 20 21 18 11 21 28 34 35 35
5 6 7 9 11 12 14 16 17 16 16 13 10 10 9 12 11 14 16 16 12 14 12 8 11 6 3 5 7 5 11 14 16 4 3 10 14 18 25 26 37 36 36 33 31
6 8 9 11 12 13 14 16 15 13 9 5 4 4 13 9 7 8 8 10 8 10 9 7 4 5 3 7 11 15 13 11 12 14 11 17 20 21 33 31 35 37 35 26 24
8 9 10 11 12 13 14 13 7 4 3 7 10 16 20 15 10 9 7 11 12 8 7 5 6 11 17 18 19 10 14 18 23 20 16 20 19 18 31 30 33 32 22 20 18
12 13 11 11 11 12 11 6 6 7 11 16 23 25 28 24 8 8 9 9 7 5 8 5 11 19 4 6 11 13 14 21 16 15 3 14 19 23 18 17 19 18 17 13 13
13 14 12 12 12 10 8 8 11 11 5 10 15 12 9 12 8 10 12 6 5 8 12 16 11 6 8 12 14 13 14 17 16 13 13 11 13 5 9 13 7 6 5 11 18
15 14 13 12 10 6 7 9 10 11 5 4 2 2 2 5 3 5 14 5 3 6 6 7 2 5 7 11 12 13 10 15 11 6 10 8 11 8 7 9 3 10 19 16 20
15 13 13 8 8 9 6 8 8 6 7 2 2 2 3 3 4 1 9 5 4 5 5 2 6 5 5 7 9 5 2 2 1 6 7 3 7 1 2 2 7 14 17 18 19
13 11 12 11 8 5 2 2 4 4 8 1 3 2 3 1 1 2 2 2 2 3 3 11 2 4 4 2 3 4 1 1 0 3 8 4 7 3 3 3 6 13 15 16 18
8 8 7 7 4 4 3 1 3 6 2 4 3 2 1 3 3 4 5 5 4 5 12 3 5 3 4 6 2 5 3 7 6 6 12 4 6 8 7 8 7 10 13 19 19
9 9 8 7 6 7 4 2 9 6 8 1 1 1 3 1 1 0 3 9 7 4 8 9 16 8 7 9 6 9 7 6 8 15 17 6 10 8 11 15 16 17 17 18 20
12 13 15 11 8 9 7 7 5 5 5 4 2 5 6 1 3 2 3 6 4 9 8 11 15 3 4 1 2 6 7 3 7 6 8 16 23 17 9 11 12 14 14 17 19
14 15 18 13 13 14 5 14 9 6 2 0 8 5 7 7 5 1 2 1 3 4 2 2 9 3 2 2 5 8 3 8 5 8 20 17 20 13 7 5 7 9 11 12 13
14 7 8 18 20 16 9 9 10 15 6 4 7 9 9 7 8 7 7 7 5 5 5 6 7 16 3 9 19 10 8 6 5 6 7 10 13 7 3 4 5 5 8 12 15
11 3 11 22 10 7 11 5 11 15 8 4 5 11 13 11 10 10 13 13 4 3 10 10 4 9 22 13 5 4 12 14 10 11 13 14 18 2 3 6 6 4 2 3 7
10 6 15 26 7 9 5 11 18 12 10 4 6 4 2 4 6 11 12 5 4 5 4 2 4 5 6 6 3 6 8 16 16 4 13 9 3 7 6 6 4 2 4 2 3
9 4 7 18 10 10 13 15 16 7 10 11 10 8 8 12 10 10 10 2 1 1 1 3 5 13 17 18 12 9 9 12 14 8 14 17 24 20 11 6 3 4 3 3 2
8 3 5 5 9 9 9 5 5 4 3 2 2 6 4 6 6 11 9 4 2 2 2 4 7 14 13 15 17 17 15 18 20 17 10 21 20 20 16 6 4 3 4 4 5
7 5 5 3 3 7 13 15 18 14 10 11 13 13 10 10 13 17 12 10 13 5 4 3 7 15 23 22 20 19 18 21 19 20 23 26 27 19 3 3 5 4 6 7 8
7 7 5 5 5 5 5 7 2 4 2 4 2 2 4 5 0 3 6 8 8 5 11 9 6 9 20 13 14 11 17 19 21 24 24 23 14 5 1 4 7 7 9 10 10

GFSSW_850_spd_009.txt.gz
Wind_Speed
4 4 5 5 5 6 7 7 7 7 7 8 9 9 10 12 13 14 16 10 6 6 7 5 5 4 3 3 3 2 5 7 9 7 4 4 7 3 8 14 17 12 15 16 19
5 5 6 7 7 8 8 9 9 9 10 9 10 11 12 13 16 16 2 4 4 1 6 7 7 6 5 3 3 6 7 9 5 10 10 13 13 14 13 16 21 18 18 14 15
7 8 9 9 10 10 11 11 12 12 12 12 11 12 13 13 15 2 4 2 2 3 7 9 6 7 8 6 7 5 9 12 12 15 16 16 18 19 16 17 20 19 20 20 20
10 11 11 11 12 12 13 13 13 14 14 14 13 13 12 10 6 2 5 6 10 7 9 9 7 6 7 9 8 9 16 17 19 14 9 17 21 18 18 27 27 28 25 25 22
11 11 11 12 12 12 13 14 14 14 14 14 13 14 12 5 10 14 15 16 12 7 9 9 10 9 10 8 8 13 16 18 17 18 18 20 26 21 27 28 28 24 22 22 23
11 11 11 11 11 12 13 14 15 15 15 15 14 13 10 12 13 11 9 9 9 10 11 12 6 10 14 13 12 12 14 20 21 18 18 19 25 20 27 23 23 21 25 24 23
10 10 10 10 10 11 13 14 15 15 15 15 14 14 14 16 14 15 15 14 13 13 12 12 11 7 5 10 7 10 13 17 21 22 9 7 16 12 16 12 18 24 27 28 27
9 8 8 9 10 11 13 15 16 16 16 14 13 12 9 12 13 17 18 16 13 16 16 14 13 9 8 2 6 8 10 10 7 1 4 6 20 14 12 18 30 32 30 25 25
8 8 8 9 11 11 13 15 16 16 15 14 8 7 7 8 8 11 14 10 12 13 14 11 9 9 6 8 10 12 12 15 12 11 4 10 13 19 30 29 33 31 24 22 20
9 9 9 10 11 12 13 15 15 13 10 5 3 4 9 3 5 7 7 9 7 8 4 5 7 8 8 10 12 15 18 18 20 21 14 18 18 19 26 28 31 27 20 13 10
11 11 11 11 10 12 12 10 7 5 3 6 7 13 12 15 11 9 7 10 8 8 7 10 9 11 17 17 20 20 19 20 21 19 17 17 16 17 26 27 21 14 9 9 14
15 13 13 11 10 12 9 2 4 6 11 17 22 22 21 19 6 8 9 9 8 11 7 5 12 17 17 8 12 15 17 19 17 9 1 13 18 21 16 22 9 9 10 14 13
15 14 15 12 11 10 6 6 8 8 7 10 12 8 8 11 9 10 14 6 9 12 14 17 14 6 11 14 15 16 16 18 17 14 11 11 15 13 10 18 10 16 16 16 16
15 13 12 12 9 3 4 8 8 9 6 4 5 3 3 5 5 7 16 6 6 10 15 12 8 7 10 16 13 16 11 11 11 6 10 4 11 12 8 8 14 14 15 16 16
15 12 11 9 5 3 6 6 7 5 7 2 3 2 2 3 3 1 8 5 11 7 5 2 5 4 8 8 7 6 1 4 5 10 12 11 7 8 5 8 13 11 12 14 14
13 10 9 9 9 6 4 3 6 5 7 1 2 1 2 3 1 2 1 3 2 6 11 17 3 4 10 2 7 2 6 10 7 5 9 14 12 7 1 6 11 10 11 10 11
10 6 7 8 6 4 3 2 4 6 2 2 3 2 5 1 2 3 4 6 4 5 8 5 9 5 4 7 5 7 8 8 8 9 13 6 6 13 4 8 8 10 9 8 10
10 9 9 10 9 6 5 1 8 3 8 3 2 2 4 3 1 1 5 10 8 5 9 10 17 5 7 5 7 8 8 8 11 13 14 3 8 8 13 14 13 12 10 7 8
9 10 11 10 12 10 6 6 5 8 6 5 2 8 17 6 4 4 5 8 5 3 7 10 10 3 3 1 2 3 6 6 6 9 9 13 20 19 14 11 9 10 9 7 8
15 10 12 12 14 12 5 7 10 8 1 5 12 12 13 7 6 3 3 2 1 1 2 3 9 4 3 1 9 7 1 5 3 4 7 13 20 15 13 8 7 5 6 8 10
12 6 9 13 16 11 4 7 12 13 5 6 11 15 13 9 7 6 6 5 8 6 2 5 4 15 10 9 14 7 6 11 12 10 13 17 14 11 6 2 6 5 3 4 5
10 4 10 25 14 10 12 7 8 13 10 11 10 15 16 13 13 14 17 14 4 3 7 9 2 8 23 20 17 10 15 16 13 8 11 12 13 13 2 5 5 6 5 2 2
8 8 14 31 8 12 11 12 21 9 8 10 10 10 9 12 7 13 14 4 3 2 2 2 3 5 8 10 2 7 11 14 18 18 24 17 14 3 4 5 7 7 7 6 3
9 5 8 24 17 14 17 18 17 10 12 21 14 13 12 13 13 9 11 1 3 2 2 1 8 14 14 18 19 17 18 16 14 11 14 16 21 17 12 5 7 7 8 7 6
9 5 7 7 12 15 12 6 14 15 8 6 10 17 17 14 15 18 16 13 4 2 3 5 11 15 18 21 21 21 19 22 23 24 23 25 23 21 19 20 18 12 8 7 7
6 5 4 3 12 19 15 15 17 12 8 10 14 7 9 10 10 7 10 9 13 11 11 8 9 11 16 18 20 23 24 27 24 24 25 24 25 22 16 8 2 5 6 8 9
11 8 3 5 7 8 13 17 12 13 4 3 5 4 8 9 5 2 4 8 9 7 8 11 8 8 19 15 18 15 22 22 24 23 23 22 13 8 6 5 6 7 10 10 11

GFSSW_850_spd_015.txt.gz
Wind_Speed
2 2 2 2 2 2 2 3 4 4 5 6 7 8 9 10 11 13 12 5 3 4 5 5 4 3 2 1 1 1 4 2 3 5 2 1 4 1 5 10 12 9 15 20 20
4 4 4 4 4 5 6 6 6 7 7 8 8 9 10 12 13 12 5 2 6 4 3 3 3 2 2 3 2 3 3 5 1 1 3 9 5 11 8 16 26 23 15 12 19
6 7 6 6 7 7 7 8 8 9 9 9 9 10 10 11 12 2 5 7 5 2 1 6 1 5 3 5 5 4 5 2 7 11 8 5 12 9 7 3 23 25 26 23 21
9 9 9 8 8 8 8 9 9 9 9 10 10 10 9 8 3 1 5 5 4 4 4 6 6 3 2 3 9 3 10 9 7 17 7 4 8 12 14 22 21 25 24 24 21
11 10 9 9 9 8 8 9 10 11 11 10 10 10 8 5 8 9 7 7 10 10 7 7 6 5 3 3 8 4 4 8 13 18 19 15 14 10 27 22 17 17 19 17 15
12 11 10 9 9 9 10 10 9 10 11 10 10 10 8 6 10 11 11 11 9 8 8 10 5 2 5 3 1 4 6 11 13 25 17 9 9 3 20 18 15 13 17 20 14
13 11 10 9 9 9 10 10 11 11 11 10 10 10 11 13 12 10 9 9 10 10 11 10 12 9 2 4 4 4 4 8 17 10 7 5 4 6 11 18 27 25 22 9 2
13 12 10 9 8 9 10 11 11 11 10 10 9 9 7 9 10 12 12 12 10 12 11 12 12 10 4 2 3 3 1 2 6 4 2 3 7 9 20 16 31 25 16 3 6
14 12 11 9 8 9 10 11 10 10 11 9 7 6 5 4 6 8 9 8 7 10 10 10 8 4 2 4 4 2 3 6 7 2 3 3 6 15 21 22 26 21 6 11 13
14 12 12 9 7 8 9 10 9 8 7 5 7 4 7 4 4 4 5 7 4 4 5 4 3 2 3 3 5 5 4 4 4 4 3 4 9 8 23 31 8 7 16 16 17
16 14 12 8 7 7 7 5 3 1 5 7 5 9 9 6 6 7 6 9 6 4 4 5 4 6 11 11 4 2 3 4 5 9 2 8 6 9 19 27 9 18 19 17 19
16 14 11 7 6 5 4 3 3 3 9 15 20 21 21 22 6 6 8 9 7 4 5 4 5 13 7 5 6 6 5 6 5 5 1 7 9 9 16 10 10 26 20 18 16
16 13 10 7 5 6 4 4 4 4 3 9 9 7 9 8 4 8 11 7 5 6 8 8 8 7 6 6 7 4 5 4 8 5 3 3 7 8 3 19 23 18 19 17 17
16 14 11 7 5 5 5 4 5 4 2 4 3 1 3 7 2 7 13 5 5 9 5 6 14 7 6 6 6 4 5 5 5 2 4 3 6 6 4 7 6 15 18 17 16
16 14 12 10 6 11 5 5 4 2 4 2 2 4 5 5 7 1 9 5 3 3 4 6 4 4 5 6 8 8 3 2 2 2 3 3 1 7 9 4 6 10 16 16 15
19 20 20 15 16 12 9 7 3 2 7 3 4 4 4 4 3 5 2 3 1 2 3 5 1 3 5 1 2 5 2 3 4 3 2 7 7 5 5 8 6 12 19 17 14
24 23 24 16 17 16 12 7 2 4 3 4 4 4 5 5 4 5 5 4 5 2 1 2 4 3 4 2 4 3 5 2 1 0 6 5 2 8 4 5 10 15 21 17 11
23 25 20 20 16 16 17 3 8 7 5 1 3 3 4 7 4 5 4 3 6 3 2 5 4 8 5 6 6 5 6 4 5 3 4 5 5 4 4 19 25 22 19 15 11
29 24 22 22 17 20 15 4 7 5 4 7 3 4 5 5 4 5 7 6 8 9 9 5 5 2 2 2 6 4 4 2 3 1 2 4 5 2 5 7 16 19 15 11 9
25 21 20 21 20 20 5 5 5 5 1 1 8 7 6 7 6 7 6 1 4 4 1 2 2 3 1 3 2 2 5 2 2 2 4 5 5 5 5 7 6 11 14 10 8
26 11 17 21 22 12 4 6 5 7 3 1 3 3 4 3 7 6 4 0 3 2 4 3 4 3 5 5 7 2 2 3 3 4 4 2 5 3 6 8 9 11 14 13 11
19 4 15 24 3 4 4 7 3 4 7 6 4 5 5 4 4 7 7 6 9 10 6 1 4 4 8 4 5 5 5 4 3 5 3 4 8 4 8 10 19 17 16 15 15
18 8 14 24 5 5 5 6 8 4 8 7 7 7 5 6 4 7 5 0 13 6 8 6 1 2 9 3 3 2 3 4 3 3 9 8 9 3 10 12 17 17 18 20 20
7 4 6 19 13 3 7 9 8 18 9 11 5 7 4 4 5 4 5 3 6 5 7 7 4 6 8 4 3 3 6 3 4 4 4 10 11 17 9 5 11 18 21 22 22
7 5 8 5 9 10 2 4 14 9 10 18 5 8 6 8 5 7 6 4 3 11 4 5 5 4 4 4 2 3 7 11 5 11 8 20 15 18 12 2 2 1 3 13 17
9 5 8 5 9 14 15 7 8 2 8 6 9 8 13 13 9 6 5 3 3 0 3 1 2 2 4 3 4 7 14 11 14 16 14 18 21 18 4 3 3 4 6 8 10
17 9 4 7 5 9 13 19 12 9 2 3 9 7 5 6 7 10 7 6 5 5 3 4 5 3 6 2 2 7 17 17 12 13 7 11 11 3 4 5 6 6 4 3 6

GFSSW_850_spd_021.txt.gz
Wind_Speed
6 5 5 4 4 4 4 4 4 4 5 6 7 7 9 9 11 12 12 5 4 5 4 4 2 1 0 2 2 2 4 1 2 2 2 6 6 2 7 5 6 6 6 9 12
9 8 7 6 5 5 5 5 5 6 6 8 8 9 10 11 12 12 6 6 5 5 5 4 3 2 1 1 1 4 3 6 4 3 2 5 2 6 5 12 4 10 8 8 10
10 9 8 8 7 7 7 7 7 7 7 7 9 9 10 10 12 2 1 6 8 8 6 5 4 2 2 1 2 3 4 5 4 6 3 3 4 2 2 6 7 12 10 7 6
12 11 10 9 9 9 8 8 7 7 8 8 9 10 10 8 2 2 5 6 7 6 5 6 4 3 1 2 2 0 5 5 2 5 3 4 4 6 7 8 11 5 5 6 6
14 13 12 11 11 10 9 9 9 9 9 9 9 10 10 6 7 7 6 8 8 8 6 6 8 5 3 3 0 2 4 6 12 14 11 10 12 8 20 14 4 2 6 5 4
16 15 14 13 12 11 10 10 10 11 10 10 10 10 9 7 9 9 9 10 10 10 10 8 6 7 3 2 3 2 5 10 12 20 12 6 3 1 3 4 2 2 8 9 5
18 16 16 14 13 13 13 12 11 11 11 11 11 10 12 14 10 9 10 10 10 10 9 9 7 5 4 1 1 2 5 7 12 6 5 6 0 7 8 6 3 4 4 4 6
20 18 17 16 14 14 13 12 11 12 12 12 11 10 8 10 10 12 11 9 9 9 8 7 8 5 3 1 4 3 3 4 3 3 1 6 8 7 6 4 1 3 2 0 3
22 20 18 16 14 14 13 11 11 12 12 12 10 7 6 6 9 11 9 8 9 9 8 5 5 2 3 5 4 4 3 4 8 3 2 2 6 9 6 4 4 5 4 3 4
24 22 19 16 14 14 12 10 11 12 12 10 11 4 10 5 6 7 8 8 5 7 6 5 4 3 3 4 5 5 4 4 6 2 2 3 8 9 22 8 7 8 7 7 8
24 22 20 16 15 14 11 9 8 6 13 9 3 5 2 7 8 8 10 10 9 5 4 3 4 7 13 11 3 4 4 5 4 4 1 7 6 12 13 2 9 11 11 11 12
24 22 21 17 16 15 12 7 7 3 8 14 21 19 14 9 7 11 13 9 6 5 6 4 7 13 4 5 6 2 1 7 5 4 6 7 8 10 4 1 6 15 13 14 15
25 24 21 17 16 17 14 12 9 6 4 8 15 14 18 18 9 13 17 9 5 6 8 8 6 4 6 5 6 4 7 3 6 4 3 4 6 7 3 10 14 14 15 14 14
26 25 19 17 16 17 16 13 9 3 2 6 6 6 9 8 5 11 20 7 3 10 7 6 5 4 3 5 7 5 8 8 7 3 5 3 5 5 5 4 6 14 15 15 14
28 25 22 22 10 18 12 12 8 4 5 2 4 7 10 8 9 5 13 6 7 7 7 7 4 4 5 8 6 6 2 5 2 2 2 3 2 6 5 3 5 10 14 14 13
30 27 25 24 23 15 13 15 11 4 9 3 5 5 5 4 4 6 5 3 2 3 1 6 1 4 7 3 6 4 4 6 4 2 1 9 8 3 4 2 5 11 16 17 16
32 30 32 31 34 21 18 17 3 7 1 6 5 5 4 5 4 5 5 5 6 5 5 2 5 3 3 3 2 3 6 2 3 2 6 1 2 7 1 2 6 18 24 19 15
35 32 36 36 30 27 26 3 11 9 10 4 5 4 8 7 4 6 6 4 6 1 3 5 4 9 5 8 7 7 8 6 7 3 4 1 6 5 1 2 8 28 26 21 18
36 38 42 43 37 34 27 7 9 7 7 10 3 5 5 5 5 4 8 6 8 11 7 5 5 1 4 4 5 5 4 4 5 3 2 4 4 0 2 4 11 19 22 22 20
43 45 50 50 44 43 14 19 9 6 8 6 12 8 10 8 8 8 9 5 5 11 5 4 3 2 2 3 3 3 5 3 2 2 4 4 6 5 7 7 7 11 23 21 19
46 24 27 45 53 33 11 8 5 11 8 6 10 7 7 8 9 7 7 2 7 6 8 6 5 2 1 5 8 2 2 3 3 4 5 2 7 4 7 9 13 19 25 23 22
34 9 24 40 17 7 15 7 8 9 16 3 3 3 8 9 8 7 10 6 13 14 9 6 5 4 8 2 2 2 6 7 6 7 3 2 12 3 3 12 19 21 24 22 19
16 11 36 44 13 8 2 4 7 6 6 6 6 4 3 7 3 6 6 0 13 8 9 7 2 1 4 2 2 3 3 3 4 3 6 5 8 3 5 7 14 15 19 20 19
10 4 6 15 4 13 9 6 7 7 5 7 4 6 5 4 2 4 6 2 3 1 1 13 5 7 13 6 4 4 5 5 5 3 7 15 8 3 4 6 7 13 13 15 19
4 3 6 5 6 9 12 11 12 8 8 14 4 7 8 7 6 7 4 1 3 3 3 3 6 4 4 5 5 6 6 8 7 5 8 4 7 7 9 11 20 15 16 20 20
8 4 3 1 12 9 12 10 19 13 9 7 11 10 9 10 6 6 6 4 5 2 4 0 3 3 2 4 5 8 9 9 12 10 9 14 19 12 8 13 11 15 14 13 14
7 12 6 2 1 12 9 12 14 12 0 5 10 6 8 13 16 9 7 8 6 9 7 5 5 3 10 2 4 9 10 14 10 9 8 13 16 2 5 9 12 14 12 13 11

GFSSW_850_spd_024.txt.gz
Wind_Speed
5 5 5 5 4 4 4 4 4 5 5 6 7 8 9 9 10 11 11 5 3 4 3 3 1 0 2 3 4 2 4 2 4 6 2 1 3 1 4 2 5 3 4 6 10
8 8 7 7 6 6 6 6 6 7 8 8 8 9 9 11 11 10 5 5 4 4 4 4 2 1 2 2 2 4 3 6 3 2 2 3 2 5 4 8 2 7 4 8 9
11 10 10 9 8 8 8 8 8 8 9 9 9 9 10 10 10 3 2 2 5 7 6 3 2 1 2 1 2 2 3 3 3 6 2 2 3 1 3 3 2 9 8 6 5
13 12 12 11 10 9 10 10 9 9 9 10 10 11 10 8 2 1 2 4 6 6 4 2 1 1 2 1 1 1 3 4 3 3 2 3 2 2 7 2 6 2 3 6 6
16 14 13 12 11 11 11 11 11 10 11 11 12 11 10 5 5 6 5 7 7 8 5 3 3 3 2 2 2 2 2 3 7 10 12 10 8 5 15 11 8 3 2 3 4
18 16 14 13 12 12 12 12 12 12 13 12 12 11 9 6 7 8 8 8 8 9 8 5 3 4 2 2 2 1 5 11 11 13 10 6 2 1 2 8 6 3 5 6 6
20 18 16 14 13 13 13 13 13 13 14 13 12 11 12 14 10 8 9 9 10 10 9 6 5 5 4 2 1 2 4 7 8 5 4 3 1 5 8 5 3 4 3 5 7
22 20 18 16 15 14 14 14 14 14 14 13 12 10 8 10 11 12 13 9 9 9 8 6 8 4 2 3 4 4 4 4 3 3 1 4 7 3 9 6 3 2 1 3 6
24 22 20 18 17 16 15 14 13 14 13 13 11 7 7 8 10 12 10 10 10 8 7 7 7 3 4 5 4 5 3 4 8 3 2 3 7 2 3 2 2 1 2 2 2
25 24 21 19 18 18 15 13 13 14 13 12 12 5 11 5 7 9 10 9 7 10 8 6 3 3 3 4 5 6 4 4 6 1 1 1 8 10 5 7 5 7 6 4 3
28 26 23 20 19 18 14 10 10 8 14 9 4 5 2 8 8 8 11 12 10 7 5 3 4 8 13 10 3 5 5 6 3 3 2 6 6 12 16 6 11 10 9 7 7
29 27 24 22 20 19 15 8 7 4 8 13 21 18 11 10 7 11 14 10 7 5 6 4 7 10 4 5 5 3 4 6 5 3 4 7 8 11 2 1 6 14 13 11 12
29 26 23 21 18 20 18 16 11 7 5 8 17 17 19 19 9 14 18 8 4 6 7 7 5 7 6 5 6 5 8 4 7 3 3 2 6 8 3 4 7 11 13 14 14
28 25 23 18 17 21 20 13 10 3 2 6 6 6 10 10 5 12 20 8 3 10 7 6 4 5 4 6 7 6 8 7 5 3 4 1 5 5 4 4 5 14 18 17 16
28 26 25 25 13 16 14 14 10 5 5 3 4 6 9 9 10 3 13 5 7 7 7 7 5 4 6 6 7 7 5 6 4 3 1 3 2 7 6 6 7 12 14 13 11
30 28 28 26 25 14 15 15 13 3 10 3 4 6 6 3 3 5 5 4 4 4 1 5 1 6 7 2 4 6 5 6 4 3 2 9 8 4 5 4 4 13 19 19 17
31 31 34 32 33 20 17 20 3 7 1 6 5 6 4 6 4 4 5 6 6 5 6 2 5 3 4 4 2 4 5 1 3 2 6 1 2 5 2 2 1 15 24 21 18
32 32 37 36 34 27 27 3 10 9 9 4 6 4 8 8 5 6 7 5 6 3 3 7 4 10 6 7 6 7 7 5 6 3 4 3 6 4 2 5 6 13 24 22 21
34 37 43 42 38 33 29 10 13 7 7 11 4 5 5 5 6 5 8 6 9 13 8 5 4 1 3 4 7 5 5 4 4 2 2 4 4 3 1 3 6 17 25 24 22
42 45 51 46 46 43 14 22 11 7 8 5 17 10 13 9 8 9 10 6 6 13 5 6 2 0 2 4 4 4 6 3 2 2 5 4 4 5 6 7 6 11 24 25 22
47 24 29 53 48 28 14 13 15 11 13 9 12 9 7 9 10 7 8 3 6 6 6 5 3 1 3 5 9 3 2 3 3 4 5 3 5 5 6 7 11 17 25 26 23
46 11 29 44 18 8 17 16 10 12 24 8 4 5 9 10 9 8 13 8 15 15 10 7 4 4 8 2 2 3 7 7 6 7 3 2 12 1 3 12 18 20 24 22 20
10 13 28 42 15 13 6 14 14 9 14 8 9 5 4 8 4 6 6 1 15 10 10 9 3 2 5 1 2 5 5 3 3 3 7 5 8 1 1 8 17 19 21 22 21
10 3 6 19 15 23 20 18 15 11 9 6 5 3 5 5 2 7 7 2 8 6 6 13 6 8 9 6 5 5 6 5 6 6 8 14 17 4 5 7 12 16 16 19 21
7 1 5 5 13 10 21 16 21 11 7 15 3 12 15 6 8 7 5 3 2 3 3 4 5 3 2 3 4 6 7 9 10 11 12 14 15 7 11 9 18 17 14 16 16
11 6 5 2 3 12 16 21 24 14 12 6 5 12 14 10 11 11 9 5 5 0 4 2 3 3 2 2 4 6 11 11 15 6 6 4 13 7 12 16 15 18 18 19 22
4 11 7 4 2 7 4 10 15 12 1 4 11 7 12 11 6 6 3 10 8 8 7 7 6 4 8 4 6 10 13 15 7 5 10 14 14 3 5 12 18 18 17 17 16

GFSSW_850_spd_027.txt.gz
Wind_Speed
2 3 2 2 2 2 2 3 3 4 5 5 6 7 8 8 8 8 7 3 3 4 4 3 2 1 3 5 5 3 4 2 5 5 3 1 1 1 2 1 3 1 1 4 8
6 5 5 5 5 4 4 5 5 6 6 7 7 8 8 8 9 6 4 3 3 4 5 4 3 2 3 3 3 4 3 6 5 4 3 1 1 2 1 5 1 2 2 5 6
9 9 8 7 7 6 6 7 7 7 8 8 8 8 9 8 7 2 1 3 5 6 7 5 4 3 3 2 2 2 4 4 2 4 3 2 2 2 2 0 2 3 0 2 2
12 12 11 10 9 9 8 8 9 9 9 9 9 10 9 7 1 0 2 4 7 7 6 4 2 2 3 2 2 2 1 2 0 3 3 2 1 3 5 3 4 3 1 2 4
15 15 13 12 11 11 10 10 10 10 10 10 10 10 9 5 5 5 4 6 7 7 5 2 1 3 4 4 3 2 1 2 4 8 8 6 7 6 5 8 6 6 3 1 3
18 17 16 14 13 13 12 12 11 11 11 11 11 10 8 5 7 7 7 8 8 9 7 4 1 4 6 3 3 2 3 8 9 7 7 5 3 5 3 11 9 5 0 2 3
21 19 18 16 15 15 14 13 12 12 12 11 11 10 11 13 9 7 8 8 9 9 8 5 4 5 7 4 2 1 3 7 6 2 4 6 2 6 11 13 6 3 3 4 4
24 21 20 18 17 16 15 14 14 13 13 11 10 9 7 10 10 12 12 9 10 9 8 6 7 7 3 6 4 2 4 3 2 1 0 4 5 2 16 14 7 6 3 2 2
26 23 21 19 18 18 16 15 14 14 13 12 9 7 6 8 10 13 10 9 9 8 8 9 10 4 5 5 4 6 3 4 7 3 1 2 5 4 13 9 6 5 3 2 2
28 25 23 20 19 19 17 15 14 14 14 12 12 5 11 6 7 9 11 11 8 11 9 6 4 4 3 4 5 6 4 5 5 1 2 1 9 6 9 9 8 6 6 5 2
28 26 24 22 20 20 16 12 10 7 13 10 4 4 3 9 9 9 13 14 11 8 5 3 4 8 12 9 3 5 4 6 2 2 3 6 6 13 10 12 10 11 11 8 6
29 27 25 22 21 21 17 9 7 2 7 12 20 18 10 10 8 13 16 11 7 5 7 4 7 8 4 4 4 4 4 6 5 3 3 6 9 12 6 5 10 17 15 12 11
31 28 25 22 21 20 20 17 11 6 5 8 18 20 20 18 9 17 21 10 5 6 7 8 4 9 8 4 6 5 7 4 6 3 2 3 7 6 1 2 1 9 10 11 12
30 26 22 19 16 22 23 13 10 1 2 6 7 8 13 12 5 13 22 8 3 10 8 5 2 5 4 5 7 5 8 6 4 3 4 1 5 6 0 2 3 10 14 15 15
30 25 24 27 12 17 16 15 13 5 5 3 5 7 12 11 15 6 17 7 8 7 7 7 7 5 5 7 7 6 6 7 4 4 2 3 1 7 1 5 4 11 15 17 17
29 27 26 29 23 17 14 18 16 4 11 4 5 6 7 3 3 7 6 5 5 5 0 4 2 6 7 2 5 9 6 6 4 3 1 8 7 4 4 5 4 13 20 18 16
34 32 33 36 33 22 20 24 2 8 0 6 6 6 3 6 3 5 6 6 7 6 6 1 5 3 4 6 2 1 6 0 1 0 5 1 5 7 6 5 4 15 26 24 21
35 33 36 39 35 30 30 5 12 8 10 2 5 5 7 6 4 5 7 7 6 3 4 7 5 11 7 7 8 7 6 5 7 4 3 2 6 6 4 2 4 6 23 25 24
34 35 39 42 43 34 27 14 13 8 8 11 4 4 4 5 6 5 7 7 10 12 9 7 5 1 2 3 5 5 5 2 5 3 2 4 4 4 1 1 3 11 23 29 27
41 41 48 45 46 42 13 26 12 7 9 4 18 10 13 9 8 8 10 7 7 15 4 7 3 0 3 4 3 4 6 3 2 1 4 4 4 4 6 7 5 9 24 29 27
48 24 34 50 51 32 16 18 21 8 11 8 13 10 7 9 10 7 9 2 7 8 13 5 3 1 4 7 11 4 3 3 3 4 5 2 4 5 8 8 12 18 27 31 30
46 12 27 54 22 16 19 24 17 19 27 10 4 7 11 12 11 10 14 9 19 18 13 9 4 4 8 2 1 3 8 7 5 6 3 3 5 0 3 8 16 20 26 28 28
31 15 29 56 16 15 18 18 26 10 17 17 18 8 5 11 7 9 9 8 21 14 13 10 4 2 5 2 2 5 5 4 4 3 8 5 5 3 4 6 13 15 22 26 26
12 6 10 38 36 26 20 21 27 25 13 15 6 8 6 12 9 8 10 5 18 10 12 18 6 9 15 6 6 6 6 6 7 4 5 13 13 6 6 9 13 19 22 23 24
6 1 3 7 8 20 23 16 22 21 24 27 7 24 20 12 14 13 6 5 3 8 3 8 8 6 4 3 4 7 7 11 12 13 11 11 13 7 13 11 22 22 17 20 24
5 5 3 2 2 5 13 24 29 26 16 13 24 21 21 23 21 16 14 8 7 4 6 3 5 5 4 3 2 4 9 11 15 11 10 11 15 6 16 15 14 17 19 21 22
12 10 7 5 3 2 6 10 11 25 10 18 23 18 21 24 10 1 17 13 10 12 8 9 7 5 6 3 4 8 15 16 8 6 12 12 17 5 6 10 17 20 21 23 18

GFSSW_850_spd_030.txt.gz
Wind_Speed
3 3 2 2 2 2 2 2 2 2 3 3 4 5 5 6 7 7 5 4 5 6 5 4 2 2 2 4 3 3 3 5 7 7 5 4 5 3 2 2 1 1 2 4 5
5 4 4 4 4 4 4 4 4 4 5 5 6 6 6 6 7 5 4 5 6 7 6 6 4 3 3 2 2 1 2 4 3 4 6 5 2 2 3 2 4 3 1 3 3
8 7 6 6 6 6 6 6 6 6 6 7 7 7 7 7 6 2 1 4 6 8 8 6 5 2 3 2 2 1 0 4 4 4 4 4 2 3 3 3 3 3 4 3 2
11 10 9 8 8 8 8 8 8 7 7 7 7 8 7 5 3 2 2 4 7 9 9 6 3 2 1 2 1 2 2 3 4 6 4 4 3 3 7 2 8 4 7 3 1
14 13 12 11 11 11 11 10 10 9 9 8 9 8 7 4 5 5 4 5 8 8 7 4 2 3 3 3 3 2 3 3 4 6 5 5 8 5 7 11 10 7 6 3 3
18 16 14 14 13 13 13 12 11 11 11 10 10 9 7 6 7 8 8 9 10 9 7 5 3 4 5 2 2 2 3 5 6 5 6 7 4 6 6 14 12 10 8 7 5
21 19 17 16 15 15 15 14 13 12 12 11 11 10 11 11 8 8 9 10 11 11 9 7 5 5 7 4 2 0 4 7 7 4 5 8 5 9 7 13 11 8 6 3 2
24 22 20 18 18 17 16 15 14 13 12 12 10 9 7 11 12 14 12 10 11 10 9 8 7 7 3 7 2 2 2 4 3 4 2 8 4 6 14 15 10 7 4 3 3
26 25 23 21 19 18 17 16 15 14 13 11 10 7 6 10 13 14 13 12 11 10 9 9 10 4 5 4 3 2 6 7 3 1 2 7 1 7 13 11 8 8 6 4 3
29 27 25 22 21 20 17 16 14 14 14 12 12 4 13 7 10 13 14 13 10 13 11 7 3 4 3 7 8 6 5 5 6 2 3 6 12 5 13 12 11 7 4 2 2
31 29 26 24 22 20 17 13 11 8 15 11 6 5 3 11 10 11 15 16 12 8 7 3 7 12 17 15 6 1 4 11 2 1 4 10 12 10 15 12 13 10 9 8 5
31 30 27 24 22 21 18 10 9 3 7 15 22 18 9 13 8 14 18 11 8 8 8 5 13 13 2 8 8 5 9 14 6 3 4 9 14 16 12 14 15 13 12 10 8
32 30 28 24 21 21 21 18 12 5 6 8 21 22 20 20 10 20 24 11 6 9 15 12 2 7 8 7 10 11 14 12 9 1 5 5 15 18 7 6 6 10 13 13 13
32 30 26 21 17 21 23 18 11 3 5 6 8 10 17 17 7 16 26 9 5 13 9 8 3 6 8 8 12 14 12 10 8 4 8 2 7 6 7 8 10 13 16 16 17
31 30 24 26 13 20 21 15 16 6 8 4 5 6 13 11 14 10 21 9 8 8 7 6 9 10 11 9 11 6 5 9 6 9 5 9 6 7 4 10 12 16 19 19 17
28 29 23 27 24 18 14 21 20 4 13 5 5 6 9 3 3 7 9 5 5 4 2 5 0 5 4 3 7 12 6 5 3 1 8 15 13 7 7 7 7 16 18 20 21
38 40 33 34 35 23 20 28 6 13 4 8 6 8 8 6 5 6 11 11 9 8 13 4 10 4 5 5 2 6 10 4 4 5 7 1 9 9 7 2 3 16 20 20 21
38 39 39 42 36 29 31 8 14 16 20 4 6 8 11 9 4 6 10 12 14 4 4 9 7 15 12 14 9 16 12 5 7 6 2 2 7 5 2 4 5 8 21 21 22
36 39 45 45 41 37 31 15 22 18 17 13 7 6 10 7 6 8 12 10 14 17 11 9 6 2 4 3 10 7 10 1 3 1 2 6 5 6 4 6 6 11 20 24 26
45 47 49 46 45 47 16 29 17 8 12 13 20 13 17 14 13 15 15 9 8 20 7 6 5 2 3 3 0 5 11 4 4 5 6 5 6 8 8 13 9 13 21 23 26
48 24 41 47 47 30 14 27 24 12 12 16 20 13 11 12 16 11 13 5 13 12 20 6 4 4 5 12 17 6 7 4 3 4 4 4 5 5 12 13 14 16 20 25 28
49 12 29 52 21 15 19 29 28 30 17 14 6 20 14 14 15 17 19 13 22 19 16 10 3 6 11 1 3 11 12 12 7 6 4 2 6 2 2 7 12 13 17 22 27
39 33 33 58 18 19 28 27 28 21 30 18 14 10 10 14 10 18 13 11 21 18 18 12 5 6 4 4 2 8 9 15 11 2 11 7 3 1 1 4 10 12 17 23 26
10 4 17 48 52 28 26 31 29 38 20 28 16 18 10 13 12 8 13 7 22 19 18 24 9 16 18 8 10 12 15 16 18 10 12 19 8 8 10 10 13 16 18 22 29
9 2 6 6 18 29 27 19 29 25 33 23 13 28 25 19 19 24 13 5 5 10 11 13 16 18 22 12 9 10 19 21 25 27 15 17 20 15 15 15 20 23 19 23 30
6 1 4 2 8 26 27 29 33 30 15 27 26 24 19 28 31 23 22 17 12 9 8 5 14 16 16 13 12 9 18 25 26 24 23 15 18 8 21 17 13 17 22 27 32
14 15 5 2 2 1 19 28 31 24 28 37 33 24 24 35 33 28 20 22 13 17 18 12 11 7 15 9 5 9 23 21 18 17 19 19 17 6 8 14 19 20 27 30 26

GFSSW_850_spd_033.txt.gz
Wind_Speed
5 4 3 2 2 2 2 3 2 3 3 4 4 6 6 6 7 6 4 5 6 6 5 3 1 1 1 1 1 1 4 6 5 7 5 8 7 4 1 2 2 1 1 3 5
5 4 4 4 4 4 4 4 4 4 5 6 6 7 7 8 8 6 6 6 7 6 6 3 3 2 2 1 1 4 4 2 3 2 4 9 6 6 5 6 5 4 2 3 3
8 6 6 6 6 6 5 5 5 6 6 7 7 7 8 8 7 4 5 5 7 8 6 6 4 2 2 2 1 1 5 2 4 3 2 6 5 4 6 7 4 7 6 3 3
11 9 8 8 8 8 7 7 7 7 7 8 8 8 8 6 4 3 1 2 6 8 8 6 2 3 3 3 2 5 1 1 3 3 2 5 2 5 8 1 5 6 7 5 3
14 13 11 10 10 10 10 9 9 9 9 8 8 9 8 5 6 6 3 3 6 8 6 3 3 3 5 2 3 5 3 3 3 3 4 3 9 9 9 7 8 6 6 5 3
18 16 15 13 13 12 12 11 11 11 11 10 9 9 7 9 8 8 8 7 8 8 6 4 3 3 2 2 5 1 4 5 5 9 8 7 11 4 8 13 9 7 6 4 2
22 20 18 16 15 15 14 13 12 12 12 11 10 9 10 12 10 9 9 10 10 11 5 8 5 3 2 2 2 2 6 8 12 11 5 8 10 14 10 12 11 11 7 5 4
24 22 21 18 17 17 16 15 14 13 13 12 10 8 8 12 13 14 11 10 10 11 11 8 6 4 2 3 2 4 4 7 7 9 4 8 10 7 11 15 14 12 9 6 5
26 25 23 20 19 18 18 16 15 15 14 12 10 6 8 10 12 16 13 7 10 9 9 8 6 4 4 6 6 8 10 9 5 8 5 11 5 7 11 15 14 12 11 8 6
29 26 25 23 21 20 18 17 16 15 15 12 12 5 13 6 10 12 14 11 6 9 5 6 6 7 8 10 10 9 11 9 10 5 7 10 14 7 13 15 16 14 12 10 8
30 29 27 25 23 21 17 13 10 7 15 12 5 6 4 11 8 9 14 12 7 10 9 10 9 13 17 16 17 8 9 13 9 3 4 13 15 14 16 17 19 20 16 13 11
29 30 28 26 23 22 17 8 9 3 9 14 23 16 12 10 5 11 16 12 11 13 12 5 15 17 10 9 12 12 13 16 14 3 4 12 17 16 19 21 25 23 20 17 13
27 29 29 26 23 23 20 15 12 6 8 14 19 17 18 19 9 16 22 11 10 15 15 17 3 5 9 8 11 14 15 15 14 2 11 13 20 24 25 27 25 16 17 17 16
29 29 29 21 19 20 21 19 8 2 6 14 9 11 18 14 10 14 24 9 7 15 14 13 10 6 9 14 13 15 13 13 12 7 10 4 9 9 7 13 14 16 17 18 17
32 30 31 31 10 21 21 13 12 5 8 3 8 6 11 19 14 10 21 10 13 10 8 5 9 12 13 16 10 8 2 6 9 11 13 16 8 11 16 17 16 17 20 20 18
37 32 32 29 23 21 18 16 17 5 16 6 7 9 10 15 4 7 10 5 5 7 7 8 2 6 6 4 6 9 5 3 3 6 9 17 16 9 10 8 12 18 20 22 21
40 35 38 37 36 22 24 35 5 13 6 11 7 9 17 10 9 10 15 15 14 9 16 13 14 6 5 6 3 12 8 4 5 6 8 2 12 15 6 7 6 18 24 24 24
41 41 42 41 33 31 35 10 10 34 33 10 5 10 14 13 9 10 13 13 23 18 8 12 9 22 16 20 9 20 16 6 6 6 4 2 8 6 3 9 6 14 22 23 22
39 47 50 48 44 43 37 17 20 42 22 17 8 8 14 11 7 11 15 16 15 22 15 13 9 7 9 5 14 7 12 10 4 2 4 7 10 8 7 8 10 15 22 25 25
45 48 55 54 47 51 21 22 26 25 24 19 28 19 18 16 13 16 17 13 14 24 17 5 5 6 5 4 5 9 9 5 6 5 8 10 14 10 9 15 15 16 23 25 25
44 20 34 55 55 34 17 19 31 31 31 26 25 22 22 15 18 13 10 7 19 20 23 9 6 6 7 13 18 8 9 9 5 8 5 6 9 9 15 16 19 20 25 28 29
35 11 22 51 19 12 17 40 25 29 30 12 15 23 20 18 15 17 18 13 24 22 16 12 3 9 13 2 10 16 14 20 7 6 5 6 14 3 5 12 20 24 26 28 31
11 24 24 53 16 15 20 22 26 20 30 23 17 16 19 18 10 21 15 15 22 18 20 13 6 3 6 3 1 9 16 13 18 1 16 8 7 4 4 7 15 19 23 26 29
9 5 19 37 44 25 22 25 24 31 25 34 17 13 17 22 18 11 19 7 22 18 18 21 7 14 19 10 9 10 15 21 19 12 18 27 17 8 11 13 16 18 22 24 29
12 3 1 5 16 26 29 23 32 26 32 32 21 29 25 18 21 25 14 6 4 10 8 11 13 17 24 22 17 11 18 23 28 35 16 27 25 16 16 16 23 24 20 20 23
12 7 2 5 8 21 29 30 32 33 22 28 26 32 26 26 27 18 21 16 10 9 8 2 11 17 25 23 22 25 20 25 30 31 30 30 29 10 24 23 17 20 22 23 27
7 15 12 3 4 6 12 31 33 26 30 39 37 27 27 38 40 37 26 16 12 15 14 11 7 8 17 15 18 6 39 23 27 30 26 28 29 5 10 13 21 22 22 28 31

GFSSW_850_spd_036.txt.gz
Wind_Speed
5 4 3 2 1 1 1 2 2 2 4 5 6 6 7 7 7 5 2 4 4 4 3 0 2 3 5 4 2 1 2 3 1 1 5 12 6 3 2 5 5 2 2 8 8
5 4 3 2 2 3 2 2 3 4 4 5 6 7 7 7 8 4 5 5 5 5 3 2 2 2 2 1 1 2 2 6 8 9 4 10 7 12 4 8 6 4 4 5 6
7 6 5 4 4 4 4 4 4 5 5 6 6 7 7 8 5 2 5 4 4 5 4 3 3 1 3 2 1 1 2 4 7 9 10 9 2 3 4 4 4 13 10 7 7
10 8 7 7 6 6 6 6 6 6 6 7 8 7 7 6 3 4 3 2 2 4 5 3 1 3 2 2 2 4 2 5 4 2 3 3 1 2 8 3 6 13 9 9 8
13 11 10 9 9 8 8 8 7 7 8 8 8 8 6 4 5 5 3 0 3 6 6 1 2 3 4 2 1 4 4 1 2 1 2 3 4 6 6 9 8 10 10 11 9
17 15 13 12 11 11 10 10 9 9 9 8 9 8 6 5 6 7 6 5 5 6 2 2 2 2 7 2 1 5 3 5 5 5 4 2 6 6 6 16 11 10 11 11 9
21 19 17 14 13 13 12 12 11 11 10 10 9 9 8 10 9 6 6 7 8 9 4 7 4 1 2 2 1 2 4 7 13 10 2 4 7 10 13 14 12 12 12 11 10
22 21 20 18 16 15 14 13 13 12 11 10 9 8 6 9 13 11 11 8 8 9 9 7 4 3 1 0 2 3 3 3 4 15 5 5 7 9 19 17 15 15 13 13 11
23 22 22 20 19 17 16 14 14 13 12 10 8 4 6 7 10 14 11 5 8 7 7 5 5 2 2 3 4 5 5 7 4 13 6 7 5 5 9 13 15 17 16 14 12
21 24 22 21 20 19 17 15 14 14 14 11 11 5 12 6 9 10 12 11 5 6 4 5 5 3 3 5 5 5 5 6 5 7 5 7 11 6 14 17 19 20 20 18 15
21 21 24 22 21 19 16 12 9 7 12 11 3 4 6 9 7 7 11 12 7 6 6 9 4 7 12 11 10 9 6 8 6 4 4 9 9 11 22 21 20 24 25 22 18
24 20 22 23 21 20 16 8 9 3 8 14 21 17 16 9 5 11 15 10 9 7 12 3 9 12 9 6 6 9 7 9 7 8 2 7 12 10 10 23 32 31 28 27 23
25 23 20 22 21 22 20 15 16 8 6 12 24 23 22 22 11 17 22 13 7 8 10 11 3 4 11 3 4 6 7 7 7 4 4 5 8 13 13 28 30 31 29 29 29
29 26 23 20 18 20 23 20 13 4 4 7 10 11 21 15 9 15 24 10 7 11 9 9 15 3 6 7 8 7 4 11 5 3 4 7 6 8 8 12 17 26 27 25 25
32 31 29 30 15 22 21 16 12 7 5 2 9 10 16 16 16 9 24 11 9 8 7 5 7 8 7 6 8 4 6 3 2 5 4 4 6 7 15 16 12 19 25 23 25
36 35 33 30 27 16 18 18 16 4 11 4 6 6 7 14 4 5 10 5 3 5 4 2 0 3 4 5 3 9 5 2 1 1 5 13 12 6 12 15 7 18 27 28 27
31 35 40 37 40 21 21 32 4 7 4 10 6 8 9 8 6 6 9 9 9 6 9 7 8 4 5 5 4 4 6 2 2 1 7 2 9 15 5 2 3 17 27 30 31
35 35 42 42 33 25 36 13 8 22 30 5 6 7 8 8 5 7 8 8 15 10 3 11 6 16 9 12 7 10 8 5 6 4 4 4 7 6 3 9 6 23 29 30 31
27 39 47 47 40 35 30 11 15 18 15 16 8 6 8 6 6 8 10 10 12 20 13 8 7 5 5 3 9 5 7 9 3 2 1 6 7 6 5 4 3 21 29 31 33
25 40 45 49 47 45 20 17 15 24 10 25 29 15 12 13 9 12 13 8 13 22 15 4 3 2 4 4 3 4 6 3 1 2 6 6 11 8 6 11 9 14 26 31 34
23 18 27 48 51 36 17 11 19 19 25 16 24 15 22 11 16 11 10 4 18 15 25 3 0 1 6 8 13 4 4 5 4 4 4 4 7 3 15 16 19 18 28 33 37
23 6 17 34 20 11 15 30 20 15 25 14 17 21 17 21 14 17 15 9 24 20 17 9 3 5 9 2 1 3 8 10 5 6 7 2 19 2 4 12 21 25 28 32 36
14 9 14 43 15 14 14 24 22 14 23 16 13 17 19 17 18 21 11 11 25 18 18 12 5 1 2 1 3 6 7 16 14 1 20 5 12 3 7 6 19 23 29 34 36
9 5 17 30 25 21 16 19 23 29 23 24 22 15 6 12 21 8 16 6 28 20 20 22 6 14 18 7 7 7 10 19 18 11 6 25 19 2 5 5 10 24 32 34 37
11 6 11 4 12 22 25 17 28 21 26 25 16 23 23 15 19 28 9 2 2 16 11 12 8 9 20 18 7 7 11 21 25 27 15 27 24 20 12 13 23 26 30 33 36
7 4 4 3 4 4 20 27 28 28 18 24 25 30 23 29 30 29 19 12 7 5 8 2 8 13 23 18 9 14 18 19 23 24 27 32 34 5 19 29 21 29 32 31 37
11 11 7 2 10 12 4 5 12 23 24 35 34 25 25 34 37 30 20 10 6 11 8 8 5 5 21 8 8 10 38 22 24 24 25 26 37 12 15 14 23 31 35 36 38

GFSSW_850_spd_042.txt.gz
Wind_Speed
8 7 5 3 3 3 2 2 2 1 2 2 3 3 3 3 2 1 1 1 2 3 4 5 5 6 7 6 5 3 4 1 0 6 4 8 4 5 7 10 5 5 9 9 23
4 5 4 4 2 2 2 1 1 1 2 2 3 3 3 3 1 1 0 1 2 4 4 4 5 6 4 3 3 4 4 4 2 3 5 11 7 9 6 8 4 8 12 19 22
4 3 2 2 2 2 1 0 1 2 3 3 4 4 3 3 3 1 2 1 4 5 5 5 5 5 4 3 2 3 4 3 1 0 6 7 5 7 10 3 10 15 19 22 23
6 5 4 3 3 3 2 2 1 2 3 3 4 4 3 1 2 2 4 3 4 6 7 8 6 3 3 2 2 3 1 3 3 1 5 7 6 5 8 5 10 12 18 22 23
10 8 8 7 6 5 5 4 3 4 4 4 4 3 2 1 3 2 1 3 6 8 9 8 5 4 4 2 2 2 1 2 3 3 5 4 5 4 7 10 9 15 21 20 21
13 12 11 10 9 8 7 6 6 5 5 5 5 3 3 3 4 4 3 4 5 7 8 6 4 5 4 2 3 3 1 4 5 5 5 5 3 4 7 14 15 20 21 21 21
15 15 14 13 12 11 9 8 8 7 7 6 5 5 6 8 6 6 5 5 6 6 7 5 3 2 4 2 1 1 3 4 7 6 4 5 5 9 14 20 22 23 22 22 22
14 16 15 16 15 13 12 10 10 8 8 8 7 7 6 8 10 11 9 8 8 9 7 5 4 4 2 4 3 2 3 2 3 9 4 6 7 4 12 25 25 25 24 24 25
13 13 14 16 17 16 14 12 12 10 9 8 8 6 6 9 13 11 10 8 9 9 8 5 6 3 4 5 4 4 3 4 7 8 4 5 6 4 7 27 27 27 26 27 26
17 14 13 14 16 17 15 13 12 11 11 10 11 5 12 6 8 11 12 9 7 10 7 5 3 3 3 4 5 6 4 5 5 4 2 3 11 6 9 22 27 28 28 30 31
15 18 14 12 14 17 14 11 9 6 11 10 6 6 3 10 9 10 13 13 10 7 5 3 4 7 12 10 5 4 4 4 3 4 5 8 9 11 18 21 25 27 32 35 35
17 19 17 15 14 14 14 8 8 4 8 15 20 17 11 10 8 13 19 11 8 5 6 4 8 11 6 5 6 4 4 7 6 4 6 7 11 10 9 15 31 36 37 40 38
20 22 19 17 17 15 16 15 12 7 5 10 23 25 27 24 14 20 26 11 5 7 9 8 6 6 8 5 6 6 7 5 8 1 3 3 7 10 11 23 31 35 41 41 46
20 19 17 20 17 20 17 15 13 4 2 6 8 11 26 18 10 21 29 12 5 12 7 6 7 5 5 6 8 7 7 6 4 2 5 3 8 5 6 11 10 33 36 44 43
20 21 18 26 16 17 15 15 11 8 4 4 4 5 15 15 12 12 31 14 9 8 7 9 7 9 7 7 9 7 4 4 2 3 2 3 4 6 4 8 15 28 31 39 41
19 20 20 24 28 18 13 17 18 1 11 3 3 3 7 4 3 6 12 5 5 5 3 4 1 6 7 3 6 5 5 6 4 3 4 9 8 5 7 12 8 15 21 29 36
16 19 19 23 33 24 17 30 4 6 5 5 4 5 2 4 3 4 7 8 8 6 10 2 4 2 4 5 3 4 7 2 3 1 8 2 5 14 9 10 11 15 23 16 27
16 17 23 25 29 25 36 3 6 7 8 5 4 3 5 6 3 5 7 7 8 2 3 9 7 12 7 10 8 8 8 6 7 5 5 1 7 6 13 22 16 28 30 22 21
18 19 25 31 30 29 25 5 11 10 7 9 5 5 5 4 6 4 6 6 8 11 11 7 6 1 1 4 11 6 8 4 1 1 1 6 8 7 10 10 16 25 18 18 23
15 17 29 27 27 37 9 14 9 10 8 8 15 8 11 7 8 9 10 6 6 15 6 6 2 1 2 4 3 6 8 2 2 2 6 6 6 8 5 12 14 13 18 19 23
14 7 18 25 25 26 9 9 8 9 8 11 18 14 12 10 9 7 8 3 9 9 25 4 4 1 4 7 11 3 5 4 5 5 5 2 7 7 13 12 12 14 29 27 25
14 6 11 22 18 7 16 13 16 9 17 4 3 17 13 11 10 10 16 8 18 15 12 9 3 5 9 3 2 1 4 7 5 6 6 3 18 5 5 6 11 18 21 23 27
11 19 16 26 12 17 8 19 19 9 16 9 10 8 5 10 6 12 8 10 19 12 11 9 4 2 5 4 2 6 8 16 2 3 15 5 13 3 6 5 11 17 17 20 24
11 4 19 25 32 18 24 16 28 25 17 18 14 7 12 13 8 5 7 7 23 19 21 21 6 11 16 6 7 7 10 12 18 10 10 20 21 6 5 7 8 14 16 18 22
17 6 9 6 15 19 22 14 28 18 22 28 13 21 23 14 17 25 22 7 7 14 13 14 13 18 25 7 5 5 15 22 24 33 11 34 20 24 13 10 19 22 19 19 23
11 11 10 17 9 8 23 17 6 24 19 18 21 25 23 24 22 21 20 16 14 4 12 3 15 18 23 19 9 11 11 25 29 30 26 32 31 4 9 17 14 28 31 27 30
30 34 14 15 11 10 5 12 20 22 13 22 25 24 24 26 33 32 8 16 8 17 14 8 13 11 19 14 4 6 39 12 15 21 19 23 39 6 13 14 25 31 32 35 37

GFSSW_850_spd_048.txt.gz
Wind_Speed
8 8 7 6 4 3 3 3 3 3 3 3 2 3 3 3 3 4 4 4 4 6 5 4 4 3 3 4 3 3 5 3 7 7 4 9 4 6 5 7 11 8 6 5 19
10 7 7 7 6 4 3 3 3 3 2 3 3 3 3 2 3 3 3 4 5 6 5 4 4 3 2 2 3 4 4 8 6 5 3 7 5 12 5 7 8 9 11 9 18
8 8 6 5 4 4 4 3 2 2 3 3 3 3 3 1 2 1 2 5 6 6 6 5 5 2 3 2 3 3 4 5 3 2 3 6 4 9 7 4 12 16 16 14 20
9 7 6 5 3 2 2 1 2 2 3 4 4 3 3 1 2 2 1 3 6 7 7 6 5 3 3 2 2 3 2 2 2 0 3 4 4 5 13 9 6 15 13 16 22
8 8 7 6 5 3 2 2 2 3 3 4 4 3 2 2 2 3 1 3 6 7 7 6 6 4 5 3 2 3 0 1 1 1 1 3 5 7 12 18 11 9 15 18 21
9 9 9 8 7 5 4 4 4 4 4 5 4 4 3 1 4 5 3 3 6 6 6 6 3 5 6 3 3 3 1 1 2 2 3 2 2 2 6 17 15 15 17 20 22
9 9 11 11 9 8 7 6 5 5 5 5 6 6 5 5 6 7 6 5 6 5 6 5 5 1 4 3 3 3 1 4 3 3 2 4 6 11 22 13 14 18 20 23 25
8 9 10 11 12 11 10 9 8 7 7 6 7 7 4 6 8 8 8 7 6 5 5 4 4 5 3 6 5 4 5 2 2 5 2 5 8 12 9 23 21 20 21 25 27
8 7 8 9 10 12 12 12 10 9 9 8 8 5 5 5 10 12 10 7 6 5 4 4 4 4 4 4 5 6 2 3 7 8 3 4 6 4 4 9 20 24 25 27 28
10 10 9 9 8 8 11 12 11 10 11 10 12 5 9 4 6 11 11 9 6 7 5 3 3 4 3 4 5 5 3 4 4 2 2 4 11 11 16 11 19 21 25 30 32
15 15 10 12 10 7 6 8 7 6 11 7 2 2 1 6 6 8 12 11 8 6 4 2 4 7 11 6 2 5 3 4 4 3 3 7 9 11 22 18 26 30 27 31 35
21 19 19 17 14 11 6 5 5 2 5 10 17 14 9 7 6 11 14 9 6 4 6 5 7 9 4 4 3 2 3 6 5 3 2 8 14 13 9 16 28 33 36 38 37
14 23 21 18 19 18 12 8 7 4 3 7 16 16 18 18 10 16 20 10 4 5 7 7 4 5 7 4 5 5 6 5 6 4 4 5 8 8 8 20 29 35 38 39 43
17 16 17 12 15 18 17 9 8 3 2 6 6 8 16 14 7 15 23 9 3 11 7 6 4 4 3 4 8 5 7 5 3 2 4 1 6 7 7 9 9 31 37 45 46
16 17 15 13 7 9 10 15 10 7 4 3 4 3 12 11 7 9 25 11 9 8 7 8 8 5 5 6 7 6 4 6 3 3 3 1 2 5 2 8 14 21 38 39 40
10 13 14 11 15 12 10 12 12 4 10 3 3 4 6 1 2 4 10 3 5 5 2 4 2 7 8 2 4 8 6 6 4 2 5 11 8 7 6 9 6 17 34 35 31
12 12 14 15 15 16 14 20 4 4 4 3 4 4 3 5 2 3 6 5 7 5 9 1 5 3 4 5 3 3 6 2 3 1 9 3 4 16 6 10 9 15 33 25 20
17 17 16 19 14 13 18 3 6 5 6 2 3 2 6 6 4 4 7 6 7 2 3 8 7 11 7 9 8 9 8 6 7 4 5 3 8 8 10 16 24 26 33 31 25
20 18 20 18 18 19 19 8 7 5 5 8 0 4 3 2 4 4 6 5 8 10 9 6 6 1 3 2 9 6 8 3 1 2 3 5 8 9 8 12 16 28 25 29 22
13 16 24 17 17 24 9 15 8 9 8 4 12 13 10 6 6 7 9 6 6 14 5 5 4 2 0 2 2 4 6 3 2 3 5 6 7 7 7 9 12 9 23 30 22
8 5 1 10 17 14 12 7 8 11 18 7 8 6 7 8 8 6 7 4 6 6 23 5 4 1 3 7 10 3 4 1 4 5 5 3 9 8 10 12 9 10 13 10 10
4 3 4 16 10 6 12 11 7 5 16 11 5 11 10 8 8 8 14 10 16 15 12 8 4 5 10 2 3 1 5 7 4 5 4 2 15 5 8 7 8 17 12 7 5
5 5 8 19 7 11 8 15 19 3 9 5 8 10 7 13 10 12 9 8 17 10 12 9 4 2 7 2 3 5 6 7 4 4 13 5 15 1 1 6 7 14 13 10 8
5 2 9 16 15 7 14 20 14 15 21 10 5 12 4 11 11 6 9 6 22 18 15 15 5 10 15 5 4 6 8 13 14 4 21 14 34 10 2 4 8 16 21 17 17
12 6 6 3 12 10 6 4 17 15 17 24 20 16 10 10 12 17 8 2 3 8 8 9 8 9 22 8 3 5 5 10 17 29 12 31 20 31 15 14 22 33 29 25 28
11 5 5 4 6 4 8 20 18 14 5 16 20 17 21 19 13 8 20 6 6 5 9 5 6 10 20 17 9 9 8 14 23 23 17 30 28 32 29 17 17 28 33 40 40
20 18 6 5 4 4 8 7 7 9 21 25 17 15 17 20 30 30 23 17 12 10 9 10 8 7 16 14 7 13 25 25 21 24 21 21 36 21 21 17 28 29 35 39 38